Best Free Video API Site

AVDBAPI.COM

Search the catalog, inspect records, and copy clean API URLs from one fast dashboard.

Telegram Join Our Telegram Community for Updates!
Today
27
Updates Today
Censored
319876
Censored Videos
Total
514670
Total Videos

Video List

Latest records ordered by update time.

ID Name CODE Category Updated API
618123 Gakuen De Jikan Yo Tomare Episode 1 avdb-h06374 Hentai 2026-08-31 22:55:07 API
618122 Genkaku Cool Na Sensei Ga Aheboteochi Episode 2 avdb-h06373 Hentai 2026-08-31 22:54:51 API
618121 Genkaku Cool Na Sensei Ga Aheboteochi Episode 1 avdb-h06372 Hentai 2026-08-31 22:54:39 API
618120 The Last Molester Train Next Episode 2 avdb-h06371 Hentai 2026-08-31 22:54:31 API
618119 The Last Molester Train Next Episode 1 avdb-h06370 Hentai 2026-08-31 22:54:19 API
618118 The New Blackmail 2 Episode 2 avdb-h06369 Hentai 2026-08-31 22:54:11 API
618117 The New Blackmail 2 Episode 1 avdb-h06368 Hentai 2026-08-31 22:54:03 API
618116 Night Shift Nurses 3 Episode 1 avdb-h06367 Hentai 2026-08-31 22:53:56 API
618115 Spa Of Love Episode 2 avdb-h06366 Hentai 2026-08-31 22:53:47 API
618114 Spa Of Love Episode 1 avdb-h06365 Hentai 2026-08-31 22:53:39 API
618112 The Blackmail 2 Episode 3 avdb-h06364 Hentai 2026-08-31 22:53:31 API
618111 The Blackmail 2 Episode 2 avdb-h06363 Hentai 2026-08-31 22:53:19 API
618110 The Blackmail 2 Episode 1 avdb-h06362 Hentai 2026-08-31 22:50:23 API
618109 Rance The Quest For Hikari Episode 4 avdb-h06361 Hentai 2026-08-31 22:50:12 API
618108 Rance The Quest For Hikari Episode 3 avdb-h06360 Hentai 2026-08-31 22:50:00 API
618107 Rance The Quest For Hikari Episode 2 avdb-h06359 Hentai 2026-08-31 22:49:46 API
618106 Rance The Quest For Hikari Episode 1 avdb-h06358 Hentai 2026-08-31 22:49:37 API
618105 Ryou Seibai Gakuen Bishoujo Seisai Hiroku Episode 2 avdb-h06357 Hentai 2026-08-31 22:48:58 API
618104 Ryou Seibai Gakuen Bishoujo Seisai Hiroku Episode 1 avdb-h06356 Hentai 2026-08-31 22:48:49 API
618103 Oppai Heart Kanojo Wa Kedamono Hatsujouki Episode 1 avdb-h06355 Hentai 2026-08-31 22:48:41 API
618102 Night Shift Nurses Karte Season 1 avdb-h06354 Hentai 2026-08-31 22:48:33 API
618101 Night Shift Nurses Kranke Episode 3 avdb-h06353 Hentai 2026-08-31 22:48:25 API
618100 Night Shift Nurses Kranke Episode 1 avdb-h06352 Hentai 2026-08-31 22:48:17 API
618099 Grope Yami No Naka No Kotoritachi Episode 2 avdb-h06351 Hentai 2026-08-31 22:44:33 API
618098 Grope Yami No Naka No Kotoritachi Episode 1 avdb-h06350 Hentai 2026-08-31 22:44:20 API
618097 The Last Kunoichi Episode 2 avdb-h06349 Hentai 2026-08-31 22:44:12 API
618096 The Last Kunoichi Episode 1 avdb-h06348 Hentai 2026-08-31 22:44:03 API
618095 The Immorals Episode 2 avdb-h06347 Hentai 2026-08-31 22:43:53 API
618094 The Immorals Episode 1 avdb-h06346 Hentai 2026-08-31 22:43:43 API
618093 Guren Crimson Lotus Episode 3 avdb-h06345 Hentai 2026-08-31 22:43:32 API
618092 Guren Crimson Lotus Episode 2 avdb-h06344 Hentai 2026-08-31 22:43:19 API
618091 Guren Crimson Lotus Episode 1 avdb-h06343 Hentai 2026-08-31 22:43:10 API
618090 Imma Youjo The Erotic Temptress Episode 5 avdb-h06342 Hentai 2026-08-31 22:43:03 API
618089 Imma Youjo The Erotic Temptress Episode 4 avdb-h06341 Hentai 2026-08-31 22:42:48 API
618088 Imma Youjo The Erotic Temptress Episode 3 avdb-h06340 Hentai 2026-08-31 22:42:37 API
618087 Imma Youjo The Erotic Temptress Episode 2 avdb-h06339 Hentai 2026-08-31 22:42:26 API
618086 Imma Youjo The Erotic Temptress Episode 1 avdb-h06338 Hentai 2026-08-31 22:42:19 API
618085 Aki Sora In A Dream Episode 2 avdb-h06337 Hentai 2026-08-31 22:42:07 API
618084 Aki Sora In A Dream Episode 1 avdb-h06336 Hentai 2026-08-31 22:41:58 API
618083 School Episode 2 avdb-h06335 Hentai 2026-08-31 22:41:48 API
618082 School Episode 1 avdb-h06334 Hentai 2026-08-31 22:41:37 API
618081 Nee Summer Episode 2 avdb-h06333 Hentai 2026-08-31 22:41:21 API
618080 NAAC-070B Best Naked/Best Virgin NAAC-070B Censored 2026-08-31 20:11:00 API
618079 MAR-AA231 Naito Hinano Infinite Anarufocus! MAR-AA231 Censored 2026-08-31 19:57:08 API
618078 FC2-PPV-4968609 [Bonus: Uncensored] A Two-day Record Of Thrusting A Filthy Cock Into An Angelically Innocent Girl Right After Her Public High School Graduation. FC2-PPV-4968609 Uncensored 2026-08-31 13:45:46 API
618077 YST-358 Regardless of whether it's low-class or high-class, I want to mess with Haruno Andou until it's disgusting. Haruno Andou YST-358 Censored 2026-08-31 13:15:44 API
618076 SAN-484 The Nudist Family: Older Sister Edition / Yui Hatano SAN-484 Censored 2026-08-31 13:13:37 API
618075 HMRK-045 [Voluptuous Slender Big Breasts] A Devilish Beauty Who Is Good At Seduction Sweetly And Sexually Attacks The Nipples And Dick Of A Masochist Man ♪ A Spectacular Grinding Cowgirl Position That Squeezes Out The Sperm With Vaginal Pressure! ! Great HMRK-045 Censored 2026-08-31 12:58:54 API
618074 GEBB-056 Guilty cute high school part-time job private room J-system relief shoplifting GEBB-056 Censored 2026-08-31 12:44:44 API
618073 T28-617 A Video Recording Of A Daughter Secretly Seducing Her Father Behind Her Mother’s Back, Depicting Ituous Family Infidelity. (Kudo Lara) T28-617 Censored 2026-08-31 12:32:21 API